Regional Weather Roundup
Issued by NWS State College, PA

Home | Current Version | Previous Version | Text Only | Print | Product List | Glossary On
Versions: 1 2 3 4 5 6 7 8 9 10 11 12 13 14 15 16 17 18 19 20 21 22 23 24 25 26 27 28 29 30 31 32 33 34 35 36 37 38 39 40 41 42 43 44 45 46 47 48 49 50
000
ASUS41 KCTP 260510
RWRCTP

REGIONAL WEATHER ROUNDUP
NATIONAL WEATHER SERVICE STATE COLLEGE PA
100 AM EDT SAT MAY 26 2018

Note: "fair" indicates few or no clouds below 12,000 feet with no
significant weather and/or obstructions to visibility.

* = STATION THAT DOES NOT REPORT PRECIPITATION /E.G. RAIN...SNOW...ETC/
    THUNDER OR FOG.

PAZ002>004-007>009-013>016-020>023-029>032-260600-
WESTERN PENNSYLVANIA

CITY           SKY/WX    TMP DP  RH WIND       PRES   REMARKS
ERIE           FAIR      65  51  60 S5        29.84S
MEADVILLE      FAIR      66  53  63 S3        29.88R
FRANKLIN*      FAIR      65  52  62 SW5       29.90S
NEW CASTLE     FAIR      58  57  97 CALM      29.89R
BEAVER COUNTY  NOT AVBL
BUTLER*        FAIR      62  57  83 CALM      29.89S
PITTSBURGH INT MOCLDY    72  60  66 CALM      29.88S
PITTSBURGH     MOCLDY    71  63  75 SE6       29.88S
INDIANA*       MOCLDY    64  63  94 CALM      29.94S
LATROBE        MOCLDY    66  66 100 CALM      29.90F
WASHINGTON CO* FAIR      68  64  87 SW3       29.93R
$$

PAZ004>006-010>012-017>019-024>028-033>037-041-042-045-046-049>053-260600-
CENTRAL PENNSYLVANIA

CITY           SKY/WX    TMP DP  RH WIND       PRES   REMARKS
BRADFORD       FAIR      52  48  86 CALM      29.91F
DUBOIS         FAIR      65  56  72 SW3       29.90F
CLEARFIELD     FAIR      63  58  83 CALM      29.91S
JOHNSTOWN      FAIR      69  59  70 S5        29.95S
ALTOONA        FAIR      69  60  73 S5        29.92R
STATE COLLEGE  FAIR      68  60  77 MISG      29.89S
WILLIAMSPORT   FAIR      63  55  75 NW3       29.84S
SELINSGROVE    FAIR      65  63  93 CALM      29.86S
FT INDIANTOWN  FAIR      66  65  97 CALM      29.87F
CAPITAL CITY   FAIR      74  65  73 W6        29.86F
HARRISBURG     FAIR      76  65  68 SW14      29.85F
YORK           FAIR      76  66  71 SW10      29.87F
$$

PAZ038>040-043-044-047-048-054-055-060>062-067>071-260600-
EASTERN PENNSYLVANIA

CITY           SKY/WX    TMP DP  RH WIND       PRES   REMARKS
SCRANTON       FAIR      73  60  63 SW6       29.86F
MOUNT POCONO   FAIR      66  59  78 W6        29.91S
ALLENTOWN      FAIR      72  62  71 W5        29.87S
QUAKERTOWN*    CLEAR     72  66  83 SW3       29.89S
READING        FAIR      75  67  76 W3        29.86S
LANCASTER      MOCLDY    74  66  76 S3        29.88S
COATESVILLE    FAIR      72  66  83 VRB5      29.91S
POTTSTOWN      FAIR      71  66  84 CALM      29.89S
BLUE BELL      FAIR      72  64  78 SW7       29.90S
DOYLESTOWN     FAIR      73  65  75 SW7       29.87S
WILLOW GROVE   NOT AVBL
NORTH PHILA    FAIR      76  63  64 SW6       29.89S
PHILADELPHIA   FAIR      73  63  70 SW8       29.89S
$$




USA.gov is the U.S. government's official web portal to all federal, state and local government web resources and services.